sat.trackr.live / text

‹ back to catalog

SHIYAN-5 (SY-5)

NORAD 39455 · 2013-068A

PAYLOAD ACTIVE UNKNOWN

§ Identity

Operator
Country
PRC
Launch date
2013-11-25
Launch site
JSC
Launch vehicle
Mass (kg)
RCS (m²)
1.33

External: N2YO · Heavens-Above · Gunter

§ Orbital elements

Epoch: 2026-09-20T03:55:45.880608Z

Period
99.74 min
Inclination
98.0559°
Eccentricity
0.0014811
Mean motion
14.43715646 rev/d
Perigee alt
735.7 km
Apogee alt
756.8 km
Semi-major
7,124.4 km
B*
2.9449e-5
RAAN
129.3488°
Arg perigee
19.4178°
Mean anomaly
340.7575°
Rev number
67,533

§ Raw data

SHIYAN-5 (SY-5)1 39455U 13068A   26263.16372547  .00000060  00000+0  29449-4 0  99952 39455  98.0559 129.3488 0014811  19.4178 340.7575 14.43715646675330

JSON: /api/v1/satellites/39455 · /tle

For live sub-satellite position, see the globe view (requires WebGL).

§ Visibility from observer

Set your observer location to see the next 7 days of passes ≥ 10°. The values pass through the URL so the page stays shareable.

No JS? Fill the form by hand. The geolocation button needs JavaScript.